VJC143 VVPK-VVTS

Flight info

Callsign VJC143
Flight time 0h 44m
Altitude 34000
Route BMT2B BMT Q1 DOVIN DOVIN5E
Aircraft A21N/M-SDE3FGHIRWY/LB1

Departure

Time 2026-05-06 02:02
Airport Pleiku Airport (VVPK)

Arrival

Time 2026-05-06 02:46
Airport Tan Son Nhat International Airport (VVTS)
Time Latitude Longitude Altitude Speed Heading
2026-05-06 01:45 14.00622 108.00607 2448 ft 0 kts
2026-05-06 01:51 14.00610 108.00607 2448 ft 2 kts 360°
2026-05-06 01:52 14.00597 108.00607 2449 ft 2 kts
2026-05-06 01:52 14.00582 108.00607 2449 ft 2 kts
2026-05-06 01:52 14.00567 108.00607 2450 ft 2 kts
2026-05-06 01:52 14.00553 108.00601 2451 ft 2 kts 43°
2026-05-06 01:53 14.00544 108.00588 2452 ft 2 kts 75°
2026-05-06 01:53 14.00543 108.00581 2452 ft 0 kts 93°
2026-05-06 01:53 14.00543 108.00575 2453 ft 0 kts 91°
2026-05-06 01:56 14.00543 108.00582 2452 ft 3 kts 91°
2026-05-06 01:56 14.00543 108.00624 2450 ft 8 kts 91°
2026-05-06 01:56 14.00542 108.00703 2445 ft 13 kts 91°
2026-05-06 01:57 14.00541 108.00804 2440 ft 7 kts 89°
2026-05-06 01:57 14.00534 108.00867 2439 ft 9 kts 121°
2026-05-06 01:57 14.00472 108.00911 2435 ft 13 kts 122°
2026-05-06 01:57 14.00455 108.01035 2433 ft 24 kts 91°
2026-05-06 01:58 14.00452 108.01194 2432 ft 23 kts 91°
2026-05-06 01:58 14.00449 108.01363 2429 ft 23 kts 91°
2026-05-06 01:58 14.00446 108.01530 2426 ft 23 kts 91°
2026-05-06 01:58 14.00443 108.01696 2422 ft 23 kts 91°
2026-05-06 01:59 14.00439 108.01869 2417 ft 24 kts 92°
2026-05-06 01:59 14.00437 108.02040 2412 ft 24 kts 90°
2026-05-06 01:59 14.00434 108.02213 2408 ft 24 kts 91°
2026-05-06 01:59 14.00432 108.02387 2404 ft 24 kts 90°
2026-05-06 02:00 14.00440 108.02500 2400 ft 14 kts 63°
2026-05-06 02:00 14.00432 108.02569 2397 ft 9 kts 189°
2026-05-06 02:00 14.00430 108.02515 2400 ft 7 kts 282°
2026-05-06 02:00 14.00431 108.02495 2401 ft 0 kts 271°
2026-05-06 02:01 14.00431 108.02496 2401 ft 0 kts 271°
2026-05-06 02:01 14.00434 108.02371 2405 ft 52 kts 270°
2026-05-06 02:01 14.00443 108.01734 2421 ft 122 kts 270°
2026-05-06 02:01 14.00463 108.00652 2502 ft 171 kts 269°
2026-05-06 02:02 14.00498 107.99445 3163 ft 170 kts 270°
2026-05-06 02:02 14.00534 107.98254 3782 ft 165 kts 269°
2026-05-06 02:02 14.00548 107.97061 4138 ft 169 kts 268°
2026-05-06 02:02 14.00546 107.95816 4446 ft 179 kts 269°
2026-05-06 02:03 14.00553 107.94502 4744 ft 190 kts 268°
2026-05-06 02:03 14.00507 107.93107 5045 ft 201 kts 257°
2026-05-06 02:03 13.99847 107.91843 5324 ft 210 kts 222°
2026-05-06 02:03 13.98531 107.91141 5608 ft 222 kts 191°
2026-05-06 02:04 13.96928 107.91068 5837 ft 241 kts 180°
2026-05-06 02:04 13.95208 107.91077 6083 ft 259 kts 181°
2026-05-06 02:04 13.93370 107.91065 6536 ft 269 kts 179°
2026-05-06 02:04 13.91527 107.91386 7241 ft 270 kts 161°
2026-05-06 02:05 13.89830 107.92272 7713 ft 280 kts 150°
2026-05-06 02:05 13.88264 107.93256 8318 ft 283 kts 151°
2026-05-06 02:05 13.86722 107.94177 8907 ft 284 kts 152°
2026-05-06 02:05 13.84999 107.95177 9535 ft 287 kts 152°
2026-05-06 02:06 13.83244 107.96188 10156 ft 290 kts 152°
2026-05-06 02:06 13.81481 107.97201 10580 ft 300 kts 152°
2026-05-06 02:06 13.79606 107.98282 10852 ft 315 kts 152°
2026-05-06 02:06 13.77650 107.99412 11120 ft 330 kts 152°
2026-05-06 02:07 13.75619 108.00587 11413 ft 343 kts 152°
2026-05-06 02:07 13.73564 108.01832 11934 ft 348 kts 149°
2026-05-06 02:07 13.71563 108.03235 12560 ft 350 kts 145°
2026-05-06 02:07 13.69605 108.04725 13155 ft 352 kts 144°
2026-05-06 02:08 13.67656 108.06222 13719 ft 354 kts 144°
2026-05-06 02:08 13.65687 108.07735 14276 ft 356 kts 144°
2026-05-06 02:08 13.63693 108.09265 14824 ft 358 kts 144°
2026-05-06 02:08 13.61710 108.10784 15353 ft 360 kts 144°
2026-05-06 02:09 13.59701 108.12320 15871 ft 362 kts 145°
2026-05-06 02:09 13.57522 108.13610 16353 ft 363 kts 159°
2026-05-06 02:09 13.55117 108.14271 16837 ft 364 kts 173°
2026-05-06 02:09 13.52586 108.14363 17328 ft 366 kts 180°
2026-05-06 02:10 13.50028 108.14302 17789 ft 368 kts 181°
2026-05-06 02:10 13.47480 108.14226 18226 ft 371 kts 181°
2026-05-06 02:10 13.44892 108.14155 18666 ft 373 kts 181°
2026-05-06 02:10 13.42329 108.14092 19091 ft 375 kts 180°
2026-05-06 02:11 13.39701 108.14032 19510 ft 377 kts 180°
2026-05-06 02:11 13.37110 108.13975 19912 ft 379 kts 180°
2026-05-06 02:11 13.34460 108.13917 20303 ft 381 kts 180°
2026-05-06 02:11 13.31812 108.13856 20671 ft 384 kts 180°
2026-05-06 02:12 13.29130 108.13789 21049 ft 386 kts 180°
2026-05-06 02:12 13.26445 108.13722 21424 ft 388 kts 180°
2026-05-06 02:12 13.23739 108.13655 21782 ft 390 kts 180°
2026-05-06 02:12 13.21052 108.13590 22134 ft 392 kts 180°
2026-05-06 02:13 13.18308 108.13523 22481 ft 394 kts 180°
2026-05-06 02:13 13.15579 108.13457 22815 ft 396 kts 180°
2026-05-06 02:13 13.12811 108.13391 23142 ft 398 kts 180°
2026-05-06 02:13 13.10045 108.13326 23460 ft 400 kts 180°
2026-05-06 02:14 13.07250 108.13261 23791 ft 402 kts 180°
2026-05-06 02:14 13.04471 108.13196 24126 ft 403 kts 180°
2026-05-06 02:14 13.01694 108.13131 24437 ft 404 kts 180°
2026-05-06 02:14 12.98887 108.13065 24734 ft 406 kts 181°
2026-05-06 02:15 12.96054 108.12998 25029 ft 407 kts 181°
2026-05-06 02:15 12.93240 108.12929 25303 ft 409 kts 181°
2026-05-06 02:15 12.90409 108.12860 25577 ft 410 kts 181°
2026-05-06 02:15 12.87571 108.12791 25855 ft 412 kts 181°
2026-05-06 02:16 12.84708 108.12723 26122 ft 413 kts 181°
2026-05-06 02:16 12.81819 108.12654 26383 ft 415 kts 181°
2026-05-06 02:16 12.78950 108.12586 26641 ft 416 kts 180°
2026-05-06 02:16 12.76043 108.12518 26888 ft 418 kts 180°
2026-05-06 02:17 12.73137 108.12450 27123 ft 420 kts 180°
2026-05-06 02:17 12.70222 108.12382 27362 ft 421 kts 180°
2026-05-06 02:17 12.67329 108.12313 27595 ft 422 kts 180°
2026-05-06 02:17 12.64370 108.12246 27828 ft 424 kts 180°
2026-05-06 02:18 12.61435 108.12184 27945 ft 425 kts 180°
2026-05-06 02:18 12.58515 108.12125 27949 ft 425 kts 180°
2026-05-06 02:18 12.55570 108.12067 27952 ft 425 kts 180°
2026-05-06 02:18 12.52599 108.12008 27953 ft 425 kts 180°
2026-05-06 02:19 12.49667 108.11950 27954 ft 425 kts 180°
2026-05-06 02:19 12.46703 108.11890 27954 ft 425 kts 180°
2026-05-06 02:19 12.43758 108.11832 27954 ft 425 kts 180°
2026-05-06 02:19 12.40826 108.11774 27954 ft 425 kts 180°
2026-05-06 02:20 12.34956 108.11658 27954 ft 425 kts 180°
2026-05-06 02:20 12.31982 108.11599 27954 ft 425 kts 180°
2026-05-06 02:20 12.29060 108.11541 27954 ft 425 kts 180°
2026-05-06 02:21 12.26115 108.11482 27954 ft 425 kts 180°
2026-05-06 02:21 12.23134 108.11423 27954 ft 425 kts 180°
2026-05-06 02:21 12.20209 108.11365 27954 ft 425 kts 180°
2026-05-06 02:21 12.17267 108.11307 27954 ft 425 kts 180°
2026-05-06 02:22 12.14333 108.11249 27954 ft 425 kts 180°
2026-05-06 02:22 12.11369 108.11192 27954 ft 425 kts 180°
2026-05-06 02:22 12.08412 108.11134 27954 ft 425 kts 180°
2026-05-06 02:22 12.05497 108.11077 27954 ft 425 kts 180°
2026-05-06 02:23 12.02539 108.11020 27954 ft 425 kts 180°
2026-05-06 02:23 11.99612 108.10962 27954 ft 425 kts 180°
2026-05-06 02:23 11.96658 108.10902 27954 ft 425 kts 181°
2026-05-06 02:23 11.93724 108.10548 27949 ft 427 kts 191°
2026-05-06 02:24 11.90895 108.09597 27952 ft 429 kts 202°
2026-05-06 02:24 11.89049 108.08598 27954 ft 431 kts 210°
2026-05-06 02:24 11.87896 108.07797 27956 ft 433 kts 213°
2026-05-06 02:24 11.85080 108.05605 27956 ft 433 kts 216°
2026-05-06 02:25 11.82744 108.03723 27955 ft 433 kts 216°
2026-05-06 02:25 11.80365 108.01801 27955 ft 433 kts 216°
2026-05-06 02:25 11.78023 107.99916 27892 ft 431 kts 216°
2026-05-06 02:25 11.75652 107.98013 27292 ft 433 kts 216°
2026-05-06 02:26 11.73275 107.96113 26354 ft 439 kts 216°
2026-05-06 02:26 11.70885 107.94205 25651 ft 438 kts 216°
2026-05-06 02:26 11.68512 107.92310 24992 ft 436 kts 216°
2026-05-06 02:26 11.66150 107.90425 24421 ft 432 kts 216°
2026-05-06 02:27 11.63793 107.88545 23893 ft 427 kts 217°
2026-05-06 02:27 11.61489 107.86706 23388 ft 421 kts 217°
2026-05-06 02:27 11.59210 107.84888 22894 ft 416 kts 217°
2026-05-06 02:27 11.56933 107.83072 22402 ft 411 kts 217°
2026-05-06 02:28 11.54723 107.81311 21918 ft 407 kts 217°
2026-05-06 02:28 11.52505 107.79543 21430 ft 403 kts 217°
2026-05-06 02:28 11.50313 107.77797 20946 ft 399 kts 217°
2026-05-06 02:28 11.48876 107.76653 20627 ft 396 kts 217°
2026-05-06 02:29 11.41890 107.71094 19061 ft 385 kts 218°
2026-05-06 02:30 11.33145 107.64138 17075 ft 371 kts 218°
2026-05-06 02:30 11.31131 107.62538 16615 ft 368 kts 218°
2026-05-06 02:31 11.29799 107.61479 16309 ft 366 kts 218°
2026-05-06 02:31 11.27143 107.59369 15697 ft 363 kts 218°
2026-05-06 02:31 11.25153 107.57788 15233 ft 360 kts 218°
2026-05-06 02:31 11.23840 107.56744 14916 ft 359 kts 218°
2026-05-06 02:32 11.21892 107.55198 14455 ft 356 kts 218°
2026-05-06 02:32 11.19956 107.53661 14000 ft 354 kts 218°
2026-05-06 02:32 11.18009 107.52116 13544 ft 352 kts 218°
2026-05-06 02:32 11.16099 107.50600 13096 ft 349 kts 219°
2026-05-06 02:33 11.13569 107.48592 12502 ft 346 kts 219°
2026-05-06 02:33 11.12941 107.48094 12354 ft 345 kts 219°
2026-05-06 02:34 11.06748 107.43183 11150 ft 327 kts 219°
2026-05-06 02:34 11.04981 107.41783 10960 ft 317 kts 219°
2026-05-06 02:34 11.03260 107.40418 10772 ft 307 kts 219°
2026-05-06 02:34 11.01781 107.38948 10576 ft 295 kts 235°
2026-05-06 02:35 11.00834 107.37140 10347 ft 286 kts 251°
2026-05-06 02:35 11.00242 107.35223 9982 ft 283 kts 256°
2026-05-06 02:35 10.99785 107.33276 9675 ft 280 kts 258°
2026-05-06 02:35 10.99369 107.31329 9535 ft 282 kts 258°
2026-05-06 02:36 10.98953 107.29382 9304 ft 282 kts 258°
2026-05-06 02:36 10.98536 107.27464 9056 ft 281 kts 258°
2026-05-06 02:36 10.98106 107.25512 8757 ft 281 kts 258°
2026-05-06 02:36 10.97677 107.23566 8454 ft 280 kts 259°
2026-05-06 02:37 10.97253 107.21654 8159 ft 280 kts 258°
2026-05-06 02:37 10.96823 107.19717 7854 ft 279 kts 259°
2026-05-06 02:37 10.96394 107.17787 7555 ft 279 kts 259°
2026-05-06 02:37 10.95971 107.15889 7255 ft 278 kts 259°
2026-05-06 02:38 10.95539 107.13952 6952 ft 278 kts 259°
2026-05-06 02:38 10.95117 107.12058 6654 ft 277 kts 259°
2026-05-06 02:38 10.94688 107.10133 6351 ft 276 kts 259°
2026-05-06 02:38 10.94120 107.07589 5949 ft 277 kts 259°
2026-05-06 02:39 10.93698 107.05699 5652 ft 277 kts 259°
2026-05-06 02:39 10.93412 107.04417 5449 ft 278 kts 259°
2026-05-06 02:39 10.92984 107.02502 5149 ft 277 kts 259°
2026-05-06 02:39 10.92418 106.99970 4751 ft 277 kts 259°
2026-05-06 02:40 10.92131 106.98689 4550 ft 274 kts 259°
2026-05-06 02:40 10.91714 106.96826 4248 ft 272 kts 259°
2026-05-06 02:40 10.91296 106.94964 3949 ft 269 kts 259°
2026-05-06 02:40 10.90885 106.93126 3645 ft 266 kts 258°
2026-05-06 02:41 10.90475 106.91298 3345 ft 262 kts 258°
2026-05-06 02:41 10.90070 106.89494 3041 ft 259 kts 258°
2026-05-06 02:41 10.89673 106.87722 2740 ft 256 kts 258°
2026-05-06 02:41 10.89279 106.85962 2437 ft 253 kts 258°
2026-05-06 02:42 10.88893 106.84227 2172 ft 249 kts 256°
2026-05-06 02:42 10.88516 106.82524 2015 ft 247 kts 253°
2026-05-06 02:42 10.88001 106.80859 2003 ft 248 kts 249°
2026-05-06 02:42 10.87396 106.79251 1991 ft 235 kts 247°
2026-05-06 02:43 10.86807 106.77743 1997 ft 229 kts 247°
2026-05-06 02:43 10.86249 106.76291 2083 ft 211 kts 247°
2026-05-06 02:43 10.85730 106.74915 1815 ft 204 kts 247°
2026-05-06 02:43 10.85243 106.73621 1566 ft 189 kts 247°
2026-05-06 02:44 10.84787 106.72410 1297 ft 174 kts 247°
2026-05-06 02:44 10.84378 106.71325 1046 ft 159 kts 246°
2026-05-06 02:44 10.83988 106.70291 847 ft 156 kts 246°
2026-05-06 02:44 10.83603 106.69270 668 ft 154 kts 246°
2026-05-06 02:45 10.83214 106.68233 482 ft 155 kts 246°
2026-05-06 02:45 10.82825 106.67221 274 ft 156 kts 248°
2026-05-06 02:45 10.82437 106.66185 63 ft 155 kts 247°
2026-05-06 02:45 10.82074 106.65232 32 ft 123 kts 249°
2026-05-06 02:46 10.81831 106.64587 28 ft 74 kts 249°
2026-05-06 02:46 10.81636 106.64329 25 ft 22 kts 215°
2026-05-06 02:46 10.81545 106.64295 25 ft 13 kts 175°
2026-05-06 02:46 10.81456 106.64324 25 ft 13 kts 160°
2026-05-06 02:47 10.81371 106.64356 25 ft 13 kts 159°
2026-05-06 02:47 10.81287 106.64389 25 ft 13 kts 158°
2026-05-06 02:47 10.81248 106.64460 25 ft 12 kts 70°
2026-05-06 02:47 10.81283 106.64542 25 ft 12 kts 68°
2026-05-06 02:48 10.81315 106.64625 25 ft 12 kts 69°
2026-05-06 02:48 10.81346 106.64708 25 ft 12 kts 69°
2026-05-06 02:48 10.81388 106.64818 25 ft 12 kts 69°
2026-05-06 02:48 10.81409 106.64873 25 ft 12 kts 69°
2026-05-06 02:49 10.81440 106.64954 25 ft 12 kts 69°
2026-05-06 02:49 10.81471 106.65035 26 ft 11 kts 69°
2026-05-06 02:49 10.81498 106.65106 27 ft 10 kts 70°
2026-05-06 02:49 10.81535 106.65205 28 ft 12 kts 69°
2026-05-06 02:50 10.81568 106.65292 28 ft 14 kts 69°
2026-05-06 02:50 10.81592 106.65356 28 ft 14 kts 69°
2026-05-06 02:50 10.81627 106.65449 28 ft 14 kts 69°
2026-05-06 02:50 10.81662 106.65542 28 ft 13 kts 69°
2026-05-06 02:51 10.81696 106.65633 28 ft 13 kts 69°
2026-05-06 02:51 10.81722 106.65710 28 ft 10 kts 83°
2026-05-06 02:51 10.81709 106.65781 28 ft 10 kts 112°
2026-05-06 02:51 10.81684 106.65849 28 ft 10 kts 102°
2026-05-06 02:52 10.81691 106.65923 28 ft 10 kts 69°
2026-05-06 02:52 10.81718 106.65993 28 ft 10 kts 70°
2026-05-06 02:52 10.81696 106.66054 28 ft 10 kts 164°
2026-05-06 02:52 10.81622 106.66048 28 ft 10 kts 185°
2026-05-06 02:53 10.81548 106.66041 28 ft 8 kts 185°
2026-05-06 02:53 10.81508 106.66038 28 ft 5 kts 185°
2026-05-06 02:53 10.81473 106.66058 29 ft 3 kts 111°
2026-05-06 02:53 10.81470 106.66074 29 ft 3 kts 99°
2026-05-06 02:54 10.81467 106.66097 29 ft 2 kts 95°
2026-05-06 02:54 10.81465 106.66115 29 ft 2 kts 95°
2026-05-06 02:54 10.81464 106.66120 29 ft 0 kts 95°